Location: Burgberg
(50.1428°N, 11.0671°E)
Time: 16:19:43
(UTC+00:00)

Cosmos 1371 Rocket - Pass Details

Date: 26 January 2020
Orbit: 753 x 790 km, 74.0° (Epoch: 20 February)

Event Time Altitude Azimuth Distance (km) Brightness Sun altitude
Exits shadow 04:13:53 36° 352° (N) 1,229 4.9 -26.2°
Maximum altitude 04:16:03 68° 64° (ENE) 844 4.3 -25.8°
Drops below altitude 10° 04:21:21 10° 147° (SSE) 2,340 6.9 -25.0°
Sets 04:23:45 0° 150° (SSE) 3,268 7.7 -24.6°
